Regional Weather Roundup
Issued by NWS Cleveland, OH

Home | Current Version | Previous Version | Graphics & Text | Print | Product List | Glossary On
Versions: 1 2 3 4 5 6 7 8 9 10 11 12 13 14 15 16 17 18 19 20 21 22 23 24 25 26 27 28 29 30 31 32 33 34 35 36 37 38 39 40 41 42 43 44 45 46 47 48 49 50
353
ASUS41 KCLE 240400
RWRCLE
OHIO REGIONAL WEATHER ROUNDUP
NATIONAL WEATHER SERVICE WILMINGTON, OH
1200 AM EDT TUE APR 24 2018

NOTE: "FAIR" INDICATES FEW OR NO CLOUDS BELOW 12,000 FEET WITH NO
SIGNIFICANT WEATHER AND/OR OBSTRUCTIONS TO VISIBILITY.

OHZ001>008-015>018-024>027-034-035-043-044-240500-
   NORTHWEST OHIO

CITY           SKY/WX    TMP DP  RH WIND       PRES   REMARKS
DEFIANCE       LGT RAIN  52  47  83 E5        30.14F
FINDLAY        LGT RAIN  56  44  64 SE12G21   30.12F
TOLEDO EXPRESS CLOUDY    56  48  74 CALM      30.15F
TOLEDO EXEC    CLOUDY    56  45  66 E5        30.16F
LIMA           CLOUDY    53  47  79 SE18G24   30.11F
$$

OHZ009>014-019>023-028>033-038-089-240500-
   NORTHEAST OHIO

CITY           SKY/WX    TMP DP  RH WIND       PRES   REMARKS
CLE-HOPKINS    CLOUDY    57  47  69 E3        30.21F
CLE-LAKEFRONT  FAIR      50  41  71 NE3       30.18F
CUY CO. ARPT   NOT AVBL
LORAIN-ELYRIA  CLOUDY    52  43  71 E7        30.18F
ASHTABULA      CLOUDY    62  39  42 S6        30.20S
AKRON-CANTON   CLOUDY    56  40  55 S5        30.19F
WOOSTER        NOT AVBL
MANSFIELD      CLOUDY    56  42  59 SE13      30.16F
YOUNGSTOWN     CLOUDY    62  38  40 SE7       30.19S
$$

OHZ042-051>053-060>062-070>072-077>081-240500-
  SOUTHWEST OHIO

CITY           SKY/WX    TMP DP  RH WIND       PRES   REMARKS
CINC-COVINGTON CLOUDY    53  49  86 E10       30.03F
CINC-LUNKEN    CLOUDY    54  50  86 E7        30.04F
HAMILTON       CLOUDY    53  49  86 E10       30.06F
DAYTON         NOT AVBL
WRIGHT-PAT AFB NOT AVBL
DAYTON GENERAL LGT RAIN  53  48  83 E13G18    30.05F
WILMINGTON     CLOUDY    51  49  92 E15G21    30.07F
$$

OHZ036-037-039>041-045>050-054>059-063>069-073>076-082>088-240500-
  CENTRAL AND SOUTHEAST OHIO

CITY           SKY/WX    TMP DP  RH WIND       PRES   REMARKS
COLUMBUS       RAIN      54  47  77 E9        30.14S
OSU AIRPORT    LGT RAIN  52  47  83 E9        30.13F
BOLTON FIELD   CLOUDY    51  48  88 E8        30.13F
RICKENBACK AFB NOT AVBL
NEWARK         LGT RAIN  55  45  68 E9        30.14F
MARION         CLOUDY    56  44  64 SE15G24   30.14F
LANCASTER      CLOUDY    52  47  83 E10       30.13F
ZANESVILLE     NOT AVBL
NEW PHILLY     CLOUDY    57  41  55 E5        30.18F
$$




USA.gov is the U.S. government's official web portal to all federal, state and local government web resources and services.